Tracking 25710 objects as of 5-Jul-2022
HD Live streaming from Space Station
objects crossing your sky now

FENGYUN 1C DEB

Track FENGYUN 1C DEB now!
10-day predictions


NORAD ID: 37081
Int'l Code: 1999-025EFR
Perigee: 716.8 km
Apogee: 1,268.4 km
Inclination: 98.7 °
Period: 104.8 minutes
Semi major axis: 7363 km
RCS: 0.0002 m2 (small)
Launch date: May 10, 1999
Source: People's Republic of China (PRC)
Launch site: Taiyaun Space Center, China (TSC)

Note: This is SATELLITE DEBRIS
aabbcc
Your satellite tracking list
Your tracking list is empty




NASA's NSSDC Master Catalog

Two Line Element Set (TLE):
1 37081U 99025EFR 22185.83046060  .00002535  00000-0  16510-2 0  9999
2 37081  98.7364  39.2161 0374584 194.9095 164.0766 13.73935601411237
Source of the keplerian elements: AFSPC